Location: Lane
(33.5226°N, 79.8788°W)
Time: 20:10:27
(UTC+00:00)

Explorer 11/Cluster Stage 4 - Pass Details

Date: 05 October 2022
Orbit: 466 x 1247 km, 28.8° (Epoch: 01 December)

Event Time Altitude Azimuth Distance (km) Brightness Sun altitude
Rises 15:02:26 0° 233° (SW) 4,094 10.2 41.5°
Reaches altitude 10° 15:05:28 10° 226° (SW) 3,177 9.8 41.9°
Maximum altitude 15:12:54 40° 161° (SSE) 1,745 10.3 42.9°
Drops below altitude 10° 15:20:11 10° 95° (E) 3,108 10.2 43.9°
Sets 15:23:06 0° 88° (E) 3,997 10.6 44.3°
